Location: Gwatt
(46.7204°N, 7.6223°E)
Time: 17:13:08
(UTC+00:00)

deb Explorer IX - Pass Details

Date: 26 January 2021
Orbit: 537 x 1102 km, 38.8° (Epoch: 04 March)

Event Time Altitude Azimuth Distance (km) Brightness Sun altitude
Rises 20:52:45 0° 268° (W) 3,417 ? -45.3°
Enters shadow 20:55:04 - 258° (WSW) 2,674 ? -45.7°
Reaches altitude 10° 20:56:09 10° 251° (WSW) 2,357 - -45.9°
Maximum altitude 20:59:50 18° 209° (SSW) 1,719 - -46.4°
Drops below altitude 10° 21:03:11 10° 165° (SSE) 2,101 - -46.9°
Sets 21:06:00 0° 147° (SSE) 2,915 - -47.4°
